Precipitable_Water
1.79 1.77 1.77 1.69 1.68 1.60 1.52 1.50 1.56 1.60 1.67 1.74 1.82 1.84 1.85 1.89 1.91 1.95 1.99 1.96 1.99 2.13 2.15 2.19 2.19 2.13 2.13 2.13 2.11 2.08 2.06 2.10 2.10 2.08 2.11 2.16 2.07 2.10 2.10 2.00 2.06 2.03 1.99 2.06 2.01 1.93 1.87 1.86 1.85 1.80 1.77 1.78 1.72 1.65 1.59 1.67 1.74 1.74 1.70 1.66 1.66 1.57 1.46 1.42 1.43 1.45 1.49 1.52 1.53 1.53 1.51 1.47 1.44 1.44 1.44 1.43 1.40 1.37 1.34 1.32 1.29 1.29 1.31 1.31 1.32
1.80 1.75 1.68 1.61 1.59 1.53 1.49 1.50 1.54 1.63 1.70 1.77 1.80 1.80 1.84 1.86 1.89 1.92 1.89 1.89 1.94 2.09 2.12 2.14 2.16 2.15 2.12 2.08 2.10 2.11 2.14 2.12 2.12 2.14 2.15 2.18 2.16 2.14 2.11 2.12 2.10 2.14 2.05 2.03 2.02 1.96 1.89 1.85 1.87 1.88 1.83 1.79 1.76 1.67 1.62 1.60 1.69 1.75 1.66 1.62 1.59 1.51 1.47 1.43 1.40 1.40 1.41 1.41 1.41 1.42 1.45 1.45 1.45 1.42 1.43 1.46 1.45 1.43 1.40 1.37 1.34 1.30 1.28 1.29 1.29
1.77 1.71 1.64 1.59 1.52 1.47 1.48 1.55 1.57 1.71 1.79 1.77 1.80 1.82 1.80 1.81 1.84 1.87 1.84 1.84 1.91 2.03 2.08 2.10 2.10 2.09 2.11 2.09 2.11 2.13 2.16 2.15 2.13 2.16 2.16 2.16 2.19 2.18 2.14 2.09 2.09 2.07 2.03 1.99 2.01 2.01 1.93 1.89 1.86 1.86 1.86 1.82 1.78 1.70 1.63 1.60 1.62 1.70 1.69 1.63 1.62 1.59 1.56 1.51 1.48 1.43 1.39 1.36 1.36 1.37 1.39 1.40 1.40 1.40 1.41 1.43 1.45 1.46 1.45 1.42 1.39 1.36 1.33 1.34 1.35
1.72 1.66 1.61 1.54 1.47 1.46 1.50 1.51 1.63 1.75 1.79 1.79 1.77 1.77 1.74 1.77 1.84 1.87 1.85 1.87 1.93 2.01 2.08 2.11 2.07 2.05 2.07 2.09 2.11 2.11 2.15 2.15 2.13 2.16 2.18 2.19 2.18 2.19 2.17 2.13 2.06 2.02 2.00 1.99 1.97 1.97 1.98 1.92 1.88 1.85 1.83 1.84 1.82 1.75 1.68 1.65 1.62 1.64 1.68 1.67 1.66 1.66 1.66 1.63 1.59 1.56 1.52 1.45 1.38 1.33 1.34 1.36 1.37 1.35 1.35 1.36 1.38 1.40 1.42 1.41 1.38 1.36 1.35 1.36 1.37
1.67 1.62 1.58 1.52 1.48 1.47 1.49 1.58 1.68 1.75 1.81 1.77 1.71 1.67 1.72 1.77 1.81 1.83 1.87 1.87 1.89 1.91 2.04 2.07 2.06 2.01 2.01 2.06 2.07 2.08 2.15 2.15 2.15 2.15 2.17 2.19 2.19 2.17 2.16 2.18 2.09 2.01 1.97 1.94 1.92 1.95 1.96 1.95 1.91 1.88 1.84 1.84 1.85 1.81 1.74 1.69 1.66 1.66 1.68 1.68 1.66 1.65 1.68 1.71 1.70 1.65 1.62 1.59 1.54 1.47 1.39 1.35 1.34 1.34 1.33 1.32 1.32 1.34 1.36 1.38 1.38 1.36 1.35 1.36 1.37
1.65 1.59 1.54 1.50 1.48 1.46 1.50 1.60 1.71 1.75 1.76 1.69 1.67 1.65 1.65 1.65 1.66 1.70 1.75 1.78 1.82 1.84 1.85 1.91 2.00 2.02 1.99 2.03 2.04 2.08 2.14 2.15 2.15 2.15 2.14 2.15 2.16 2.14 2.12 2.12 2.11 2.06 2.04 1.97 1.93 1.93 1.99 1.97 1.94 1.93 1.90 1.88 1.87 1.86 1.79 1.72 1.69 1.68 1.71 1.72 1.71 1.68 1.67 1.68 1.70 1.70 1.67 1.65 1.63 1.62 1.58 1.53 1.48 1.44 1.41 1.39 1.37 1.35 1.35 1.36 1.37 1.37 1.37 1.39 1.39
1.62 1.60 1.49 1.48 1.47 1.43 1.49 1.60 1.71 1.75 1.69 1.69 1.62 1.61 1.58 1.58 1.61 1.60 1.67 1.75 1.78 1.82 1.78 1.80 1.90 1.95 1.91 1.94 1.97 2.02 2.11 2.14 2.16 2.13 2.09 2.10 2.12 2.13 2.11 2.07 2.08 2.07 2.10 2.10 2.00 1.96 1.95 1.96 1.94 1.91 1.91 1.90 1.90 1.89 1.86 1.80 1.77 1.76 1.76 1.77 1.78 1.76 1.69 1.65 1.65 1.64 1.63 1.64 1.65 1.64 1.65 1.64 1.63 1.61 1.58 1.55 1.51 1.48 1.47 1.46 1.45 1.44 1.44 1.46 1.48
1.62 1.60 1.49 1.45 1.42 1.48 1.55 1.65 1.68 1.66 1.66 1.66 1.61 1.54 1.56 1.53 1.58 1.59 1.57 1.61 1.64 1.75 1.79 1.76 1.81 1.91 1.92 1.92 1.96 1.96 2.02 2.12 2.15 2.15 2.13 2.13 2.12 2.11 2.11 2.08 2.06 2.04 2.05 2.07 2.10 2.01 1.95 1.95 1.93 1.90 1.90 1.90 1.88 1.88 1.88 1.85 1.81 1.79 1.79 1.79 1.79 1.80 1.76 1.71 1.68 1.65 1.61 1.60 1.62 1.65 1.67 1.67 1.67 1.68 1.67 1.67 1.66 1.63 1.60 1.56 1.55 1.54 1.53 1.54 1.56
1.59 1.56 1.48 1.42 1.45 1.52 1.60 1.61 1.64 1.63 1.63 1.64 1.63 1.60 1.53 1.53 1.57 1.56 1.56 1.58 1.61 1.67 1.72 1.68 1.74 1.84 1.89 1.92 1.92 1.91 1.92 2.02 2.12 2.15 2.15 2.13 2.09 2.11 2.09 2.07 2.06 2.04 2.02 2.04 2.02 2.03 1.96 1.95 1.96 1.96 1.94 1.92 1.89 1.86 1.85 1.85 1.82 1.79 1.79 1.78 1.76 1.77 1.78 1.78 1.76 1.72 1.69 1.66 1.64 1.66 1.68 1.69 1.69 1.69 1.67 1.66 1.67 1.70 1.70 1.69 1.68 1.66 1.65 1.64 1.63
1.54 1.51 1.45 1.46 1.50 1.57 1.64 1.67 1.64 1.60 1.59 1.59 1.58 1.61 1.55 1.49 1.47 1.56 1.56 1.56 1.59 1.58 1.60 1.59 1.63 1.74 1.82 1.88 1.87 1.92 1.93 1.99 2.09 2.11 2.13 2.04 2.03 2.01 1.99 2.03 1.98 1.98 1.99 2.00 2.02 1.98 1.98 1.91 1.91 1.96 1.96 1.94 1.93 1.89 1.87 1.85 1.83 1.81 1.79 1.79 1.78 1.76 1.75 1.77 1.77 1.75 1.72 1.72 1.74 1.75 1.74 1.72 1.71 1.72 1.71 1.68 1.66 1.67 1.69 1.71 1.70 1.68 1.68 1.68 1.67
1.50 1.47 1.40 1.41 1.50 1.58 1.59 1.60 1.57 1.54 1.53 1.52 1.53 1.55 1.51 1.51 1.43 1.51 1.59 1.61 1.54 1.58 1.58 1.56 1.63 1.68 1.75 1.80 1.87 1.87 1.95 1.95 1.98 2.06 2.08 2.08 2.05 2.07 1.98 1.99 1.99 1.97 1.93 1.95 1.96 1.96 1.95 1.98 1.90 1.90 1.90 1.88 1.91 1.91 1.90 1.89 1.87 1.85 1.82 1.79 1.77 1.77 1.76 1.76 1.78 1.79 1.78 1.78 1.79 1.81 1.80 1.77 1.75 1.75 1.72 1.69 1.67 1.65 1.63 1.63 1.63 1.61 1.59 1.58 1.58
1.51 1.48 1.42 1.46 1.54 1.58 1.56 1.56 1.51 1.50 1.47 1.47 1.52 1.54 1.51 1.46 1.48 1.45 1.46 1.56 1.66 1.70 1.66 1.58 1.60 1.68 1.74 1.79 1.83 1.87 1.90 1.93 1.97 2.00 2.06 2.09 2.08 2.09 2.06 2.08 2.05 2.00 1.97 1.95 1.96 1.95 1.94 1.95 1.98 1.98 2.02 1.96 1.88 1.90 1.92 1.90 1.89 1.88 1.86 1.85 1.85 1.85 1.83 1.81 1.80 1.81 1.81 1.81 1.82 1.85 1.85 1.82 1.79 1.76 1.75 1.74 1.74 1.74 1.75 1.70 1.64 1.59 1.55 1.53 1.53
1.55 1.52 1.45 1.49 1.59 1.64 1.62 1.56 1.52 1.49 1.48 1.48 1.55 1.57 1.54 1.48 1.48 1.44 1.43 1.45 1.50 1.59 1.70 1.62 1.54 1.68 1.75 1.78 1.77 1.84 1.86 1.90 1.96 2.01 2.00 2.04 2.09 2.05 2.08 2.04 1.99 2.00 1.96 1.98 1.95 1.95 1.92 1.95 1.94 1.95 1.96 2.05 2.03 1.94 1.91 1.90 1.90 1.90 1.88 1.88 1.91 1.93 1.93 1.92 1.91 1.90 1.89 1.89 1.90 1.90 1.88 1.87 1.86 1.86 1.87 1.85 1.84 1.85 1.87 1.88 1.82 1.82 1.80 1.80 1.80
1.63 1.60 1.56 1.51 1.55 1.59 1.58 1.54 1.51 1.50 1.50 1.54 1.50 1.50 1.44 1.40 1.46 1.44 1.54 1.54 1.44 1.48 1.56 1.53 1.57 1.53 1.50 1.58 1.77 1.82 1.79 1.87 1.95 1.96 2.00 2.00 1.99 2.00 2.01 2.01 1.98 2.00 2.02 1.97 1.93 1.92 1.90 1.91 1.92 1.93 1.91 1.92 1.98 2.00 1.95 1.91 1.91 1.90 1.90 1.91 1.92 1.93 1.94 1.95 1.97 1.98 1.98 1.97 1.95 1.95 1.94 1.93 1.91 1.91 1.92 1.92 1.89 1.86 1.85 1.84 1.86 1.86 1.85 1.84 1.85
1.62 1.63 1.59 1.57 1.59 1.62 1.62 1.60 1.56 1.53 1.48 1.44 1.44 1.43 1.43 1.43 1.44 1.40 1.38 1.48 1.45 1.52 1.58 1.58 1.48 1.60 1.61 1.56 1.55 1.52 1.72 1.83 1.84 1.87 1.93 1.97 1.97 1.95 1.98 1.97 1.99 2.03 2.03 2.00 1.95 1.90 1.91 1.91 1.87 1.83 1.86 1.89 1.90 1.93 1.92 1.90 1.90 1.90 1.89 1.90 1.92 1.93 1.94 1.97 2.00 2.01 1.99 1.99 1.98 1.97 1.97 1.97 1.95 1.95 1.94 1.94 1.93 1.92 1.90 1.89 1.89 1.89 1.87 1.86 1.88
1.61 1.60 1.60 1.63 1.65 1.65 1.65 1.64 1.62 1.59 1.51 1.45 1.45 1.43 1.47 1.43 1.44 1.48 1.50 1.38 1.39 1.44 1.58 1.68 1.57 1.58 1.45 1.45 1.48 1.44 1.43 1.51 1.60 1.78 1.90 1.88 1.92 1.94 1.98 1.95 1.97 1.98 2.01 1.96 1.98 1.94 1.89 1.87 1.85 1.82 1.80 1.80 1.80 1.84 1.85 1.89 1.88 1.84 1.85 1.86 1.88 1.91 1.94 1.95 1.96 1.96 1.95 1.96 1.98 1.99 1.99 1.99 1.99 1.99 2.00 1.99 1.97 1.96 1.95 1.94 1.93 1.92 1.93 1.93 1.94
1.62 1.60 1.60 1.63 1.69 1.72 1.71 1.68 1.66 1.64 1.58 1.51 1.46 1.43 1.46 1.50 1.53 1.49 1.47 1.43 1.36 1.40 1.54 1.66 1.71 1.76 1.53 1.47 1.48 1.42 1.42 1.48 1.49 1.61 1.81 1.87 1.88 1.92 1.91 1.92 1.94 1.93 1.92 1.93 1.98 1.95 1.90 1.85 1.83 1.84 1.83 1.80 1.79 1.78 1.79 1.82 1.85 1.80 1.79 1.77 1.78 1.80 1.81 1.83 1.85 1.86 1.87 1.89 1.91 1.94 1.95 1.96 1.97 1.98 1.98 1.99 1.99 1.99 1.98 1.98 1.98 1.98 1.98 1.97 1.96
1.63 1.64 1.62 1.65 1.71 1.75 1.75 1.69 1.65 1.63 1.59 1.52 1.51 1.49 1.45 1.41 1.46 1.52 1.52 1.55 1.48 1.42 1.43 1.69 1.76 1.75 1.71 1.68 1.56 1.41 1.41 1.53 1.48 1.43 1.69 1.75 1.85 1.85 1.89 1.91 1.95 1.90 1.87 1.87 1.88 1.90 1.91 1.86 1.86 1.83 1.84 1.81 1.78 1.73 1.73 1.75 1.78 1.80 1.79 1.78 1.73 1.71 1.71 1.74 1.77 1.79 1.82 1.84 1.87 1.90 1.92 1.91 1.92 1.93 1.93 1.94 1.96 1.99 2.02 2.04 2.02 2.00 1.99 1.98 1.97
1.62 1.67 1.69 1.72 1.74 1.77 1.74 1.69 1.65 1.65 1.64 1.56 1.48 1.45 1.43 1.43 1.52 1.58 1.59 1.58 1.53 1.38 1.40 1.55 1.76 1.79 1.78 1.78 1.73 1.73 1.72 1.55 1.43 1.44 1.41 1.63 1.77 1.80 1.84 1.88 1.90 1.90 1.85 1.86 1.85 1.86 1.87 1.87 1.83 1.84 1.84 1.87 1.84 1.80 1.76 1.70 1.67 1.71 1.68 1.71 1.69 1.68 1.67 1.69 1.71 1.73 1.77 1.79 1.81 1.84 1.84 1.84 1.86 1.87 1.89 1.90 1.91 1.94 1.96 1.96 1.98 2.00 1.99 1.97 1.97
1.65 1.67 1.69 1.71 1.71 1.70 1.70 1.66 1.64 1.64 1.63 1.59 1.54 1.53 1.52 1.52 1.52 1.55 1.59 1.57 1.52 1.44 1.48 1.63 1.64 1.71 1.83 1.76 1.79 1.81 1.76 1.70 1.71 1.52 1.42 1.42 1.58 1.78 1.91 1.82 1.88 1.89 1.89 1.89 1.88 1.83 1.85 1.85 1.85 1.85 1.82 1.83 1.84 1.83 1.79 1.75 1.73 1.65 1.61 1.56 1.58 1.59 1.60 1.61 1.63 1.66 1.68 1.68 1.67 1.65 1.63 1.63 1.62 1.61 1.64 1.68 1.76 1.86 1.91 1.95 1.98 2.02 2.04 2.04 2.04
1.70 1.71 1.69 1.68 1.68 1.63 1.65 1.64 1.62 1.60 1.61 1.60 1.59 1.60 1.60 1.58 1.54 1.53 1.53 1.53 1.52 1.60 1.62 1.62 1.68 1.68 1.73 1.77 1.76 1.73 1.74 1.77 1.70 1.64 1.49 1.42 1.47 1.54 1.61 1.84 1.84 1.79 1.84 1.87 1.93 1.92 1.87 1.84 1.83 1.81 1.84 1.81 1.81 1.80 1.77 1.74 1.73 1.74 1.72 1.66 1.57 1.55 1.55 1.55 1.55 1.57 1.58 1.61 1.62 1.62 1.61 1.60 1.59 1.58 1.59 1.59 1.58 1.60 1.73 1.89 1.97 2.00 2.05 2.06 2.04
1.70 1.71 1.73 1.71 1.69 1.67 1.64 1.64 1.62 1.61 1.61 1.61 1.64 1.67 1.69 1.69 1.64 1.59 1.61 1.61 1.69 1.72 1.70 1.72 1.75 1.76 1.73 1.75 1.73 1.68 1.63 1.65 1.67 1.64 1.63 1.56 1.38 1.44 1.58 1.58 1.62 1.71 1.72 1.76 1.84 1.87 1.89 1.89 1.82 1.77 1.80 1.82 1.81 1.78 1.78 1.77 1.79 1.78 1.78 1.72 1.68 1.64 1.60 1.56 1.52 1.51 1.53 1.59 1.62 1.63 1.63 1.62 1.62 1.59 1.57 1.56 1.56 1.55 1.52 1.64 1.87 1.97 1.99 1.99 2.00
1.67 1.67 1.67 1.68 1.66 1.66 1.64 1.63 1.65 1.66 1.64 1.62 1.64 1.67 1.72 1.77 1.76 1.70 1.66 1.66 1.73 1.76 1.74 1.74 1.74 1.74 1.71 1.66 1.62 1.64 1.63 1.56 1.56 1.61 1.57 1.50 1.47 1.51 1.61 1.68 1.65 1.56 1.72 1.71 1.72 1.77 1.83 1.87 1.84 1.80 1.82 1.83 1.85 1.84 1.84 1.81 1.80 1.80 1.84 1.79 1.73 1.70 1.69 1.68 1.65 1.61 1.57 1.56 1.57 1.58 1.56 1.55 1.53 1.51 1.51 1.50 1.51 1.53 1.49 1.48 1.71 1.91 1.95 1.95 1.96
1.64 1.67 1.68 1.66 1.67 1.68 1.65 1.62 1.64 1.67 1.68 1.70 1.71 1.78 1.83 1.80 1.76 1.75 1.75 1.82 1.82 1.76 1.73 1.71 1.72 1.71 1.73 1.74 1.79 1.76 1.78 1.72 1.70 1.68 1.64 1.56 1.54 1.51 1.55 1.66 1.65 1.68 1.74 1.71 1.62 1.58 1.65 1.73 1.83 1.85 1.84 1.86 1.86 1.88 1.87 1.84 1.85 1.81 1.78 1.79 1.78 1.77 1.77 1.76 1.76 1.75 1.72 1.68 1.63 1.57 1.52 1.49 1.46 1.44 1.43 1.45 1.47 1.52 1.51 1.43 1.54 1.81 1.90 1.92 1.92
1.59 1.59 1.64 1.66 1.69 1.69 1.67 1.64 1.64 1.69 1.72 1.75 1.78 1.77 1.77 1.80 1.81 1.83 1.88 1.79 1.83 1.80 1.74 1.72 1.77 1.72 1.73 1.76 1.79 1.78 1.81 1.84 1.78 1.73 1.71 1.71 1.64 1.49 1.57 1.64 1.52 1.59 1.70 1.71 1.59 1.77 1.71 1.64 1.72 1.79 1.87 1.89 1.91 1.90 1.91 1.90 1.90 1.88 1.79 1.82 1.80 1.80 1.78 1.79 1.78 1.78 1.79 1.78 1.67 1.46 1.38 1.36 1.34 1.35 1.35 1.37 1.41 1.44 1.43 1.38 1.52 1.79 1.91 1.91 1.91
1.55 1.58 1.64 1.68 1.70 1.73 1.74 1.70 1.69 1.72 1.73 1.74 1.79 1.82 1.81 1.83 1.89 1.87 1.85 1.92 1.85 1.83 1.82 1.82 1.80 1.77 1.77 1.76 1.79 1.82 1.82 1.87 1.90 1.82 1.72 1.69 1.63 1.58 1.55 1.58 1.55 1.53 1.68 1.62 1.67 1.53 1.63 1.61 1.69 1.71 1.76 1.86 1.94 1.94 1.91 1.93 1.93 1.90 1.82 1.82 1.85 1.80 1.77 1.76 1.77 1.80 1.80 1.78 1.65 1.40 1.29 1.30 1.33 1.32 1.32 1.35 1.35 1.33 1.28 1.30 1.50 1.74 1.85 1.89 1.91
1.59 1.64 1.71 1.69 1.72 1.76 1.78 1.75 1.73 1.73 1.73 1.79 1.73 1.78 1.88 1.88 1.89 1.90 1.93 1.98 1.95 1.92 1.89 1.84 1.80 1.84 1.82 1.79 1.76 1.75 1.81 1.86 1.89 1.92 1.83 1.74 1.71 1.69 1.61 1.44 1.47 1.51 1.55 1.67 1.62 1.57 1.62 1.73 1.72 1.71 1.70 1.74 1.80 1.86 1.89 1.91 1.90 1.91 1.86 1.79 1.85 1.84 1.81 1.76 1.76 1.74 1.76 1.71 1.59 1.47 1.40 1.36 1.36 1.37 1.35 1.34 1.33 1.30 1.30 1.40 1.63 1.78 1.83 1.82 1.78
1.66 1.68 1.72 1.72 1.69 1.68 1.70 1.70 1.72 1.72 1.75 1.78 1.79 1.84 1.89 1.87 1.88 1.88 1.82 1.90 1.91 1.90 1.91 1.92 1.88 1.90 1.88 1.92 1.90 1.83 1.87 1.86 1.86 1.97 1.90 1.83 1.79 1.74 1.68 1.55 1.36 1.29 1.43 1.46 1.54 1.57 1.67 1.61 1.75 1.69 1.75 1.74 1.73 1.74 1.73 1.71 1.80 1.82 1.79 1.78 1.80 1.87 1.82 1.79 1.77 1.77 1.73 1.64 1.59 1.55 1.52 1.44 1.40 1.39 1.42 1.40 1.35 1.37 1.43 1.56 1.68 1.74 1.76 1.76 1.74
1.60 1.63 1.64 1.67 1.70 1.70 1.67 1.68 1.70 1.73 1.76 1.81 1.82 1.85 1.89 1.90 1.91 1.85 1.78 1.83 1.84 1.82 1.86 1.87 1.89 1.94 1.93 1.92 1.87 1.85 1.86 1.88 1.87 1.91 1.85 1.82 1.80 1.79 1.74 1.63 1.58 1.38 1.31 1.31 1.40 1.44 1.62 1.64 1.55 1.80 1.70 1.81 1.74 1.80 1.76 1.69 1.72 1.69 1.75 1.76 1.79 1.90 1.87 1.79 1.76 1.76 1.70 1.62 1.59 1.58 1.54 1.50 1.44 1.42 1.40 1.40 1.44 1.52 1.62 1.68 1.71 1.72 1.76 1.80 1.80
1.61 1.60 1.60 1.61 1.64 1.68 1.68 1.67 1.69 1.74 1.78 1.80 1.84 1.85 1.89 1.86 1.92 1.90 1.86 1.85 1.83 1.83 1.85 1.90 1.93 1.94 1.94 1.93 1.94 1.91 1.94 1.88 1.82 1.89 1.89 1.85 1.80 1.75 1.74 1.71 1.65 1.44 1.40 1.30 1.35 1.52 1.55 1.68 1.65 1.67 1.74 1.76 1.78 1.75 1.83 1.84 1.81 1.70 1.71 1.75 1.77 1.86 1.85 1.80 1.76 1.75 1.72 1.67 1.65 1.63 1.58 1.53 1.48 1.44 1.44 1.47 1.57 1.64 1.67 1.71 1.76 1.82 1.88 1.90 1.89
1.66 1.65 1.62 1.60 1.63 1.69 1.74 1.71 1.72 1.71 1.77 1.79 1.83 1.85 1.90 1.89 1.93 1.91 1.92 1.90 1.84 1.82 1.86 1.91 1.93 1.94 1.92 1.91 1.92 1.88 1.92 1.88 1.88 1.92 1.91 1.86 1.85 1.81 1.74 1.74 1.68 1.63 1.53 1.47 1.30 1.52 1.61 1.57 1.72 1.78 1.76 1.79 1.83 1.84 1.84 1.84 1.88 1.82 1.79 1.80 1.84 1.87 1.79 1.75 1.69 1.67 1.68 1.68 1.71 1.74 1.72 1.66 1.62 1.55 1.53 1.55 1.62 1.69 1.72 1.78 1.84 1.86 1.87 1.88 1.89
1.73 1.74 1.69 1.64 1.67 1.72 1.78 1.78 1.75 1.76 1.80 1.82 1.85 1.87 1.90 1.88 1.90 1.84 1.86 1.95 1.88 1.86 1.86 1.90 1.91 1.92 1.88 1.84 1.86 1.86 1.91 1.87 1.84 1.83 1.85 1.88 1.89 1.82 1.79 1.75 1.73 1.72 1.68 1.56 1.42 1.41 1.67 1.65 1.67 1.77 1.85 1.79 1.82 1.79 1.83 1.89 1.92 1.86 1.87 1.88 1.96 1.87 1.84 1.81 1.74 1.71 1.70 1.68 1.67 1.71 1.75 1.75 1.72 1.71 1.68 1.65 1.64 1.69 1.74 1.79 1.84 1.88 1.90 1.91 1.90
1.82 1.78 1.72 1.71 1.75 1.76 1.79 1.81 1.81 1.81 1.83 1.84 1.90 1.92 1.90 1.88 1.87 1.85 1.86 1.87 1.85 1.87 1.85 1.80 1.87 1.86 1.84 1.84 1.86 1.90 1.96 1.86 1.83 1.84 1.87 1.88 1.89 1.87 1.84 1.78 1.72 1.76 1.72 1.63 1.49 1.45 1.61 1.78 1.76 1.73 1.83 1.83 1.76 1.80 1.78 1.85 1.91 1.92 1.87 1.91 1.98 1.94 1.92 1.89 1.92 1.85 1.77 1.74 1.71 1.68 1.69 1.70 1.71 1.73 1.76 1.77 1.78 1.78 1.79 1.81 1.83 1.86 1.88 1.90 1.90
1.88 1.82 1.76 1.77 1.81 1.86 1.87 1.86 1.87 1.89 1.91 1.91 1.91 1.93 1.92 1.89 1.86 1.87 1.84 1.83 1.84 1.83 1.85 1.79 1.85 1.87 1.83 1.81 1.80 1.86 1.92 1.89 1.85 1.85 1.86 1.87 1.87 1.85 1.86 1.83 1.78 1.75 1.80 1.68 1.62 1.55 1.50 1.72 1.74 1.81 1.78 1.91 1.71 1.88 1.78 1.81 1.90 1.99 1.94 1.91 2.01 2.05 2.01 1.99 1.98 1.97 1.93 1.88 1.84 1.80 1.76 1.73 1.73 1.73 1.74 1.74 1.77 1.80 1.83 1.82 1.82 1.84 1.85 1.83 1.81
1.89 1.86 1.81 1.79 1.81 1.88 1.91 1.91 1.92 1.92 1.95 2.00 1.98 1.94 1.92 1.91 1.88 1.86 1.88 1.88 1.88 1.85 1.83 1.82 1.84 1.89 1.85 1.81 1.80 1.85 1.89 1.86 1.89 1.87 1.90 1.86 1.86 1.82 1.82 1.84 1.78 1.80 1.84 1.82 1.70 1.58 1.56 1.60 1.75 1.74 1.74 1.84 1.79 1.84 1.95 1.94 1.99 2.00 1.96 1.98 2.01 2.03 2.02 2.01 2.00 2.07 2.02 2.01 1.97 1.93 1.89 1.87 1.86 1.85 1.82 1.79 1.77 1.77 1.82 1.85 1.86 1.85 1.81 1.78 1.73
1.82 1.84 1.85 1.87 1.92 1.94 1.95 1.94 1.93 1.93 1.95 2.00 2.01 1.99 1.95 1.92 1.91 1.89 1.89 1.89 1.90 1.89 1.87 1.86 1.90 1.91 1.83 1.79 1.82 1.87 1.90 1.84 1.85 1.88 1.93 1.90 1.86 1.83 1.80 1.83 1.84 1.82 1.86 1.86 1.85 1.72 1.66 1.57 1.69 1.71 1.78 1.81 1.95 1.92 1.94 1.96 1.94 1.95 1.93 1.99 2.05 2.02 2.04 2.05 2.05 2.09 2.10 2.07 2.06 2.04 2.01 1.98 1.96 1.93 1.91 1.88 1.85 1.82 1.82 1.86 1.88 1.85 1.80 1.76 1.72
1.88 1.89 1.94 1.96 1.95 2.00 1.98 1.96 1.95 1.95 1.97 2.00 1.99 1.99 2.02 2.01 1.98 1.95 1.92 1.91 1.89 1.90 1.91 1.94 1.96 1.98 1.92 1.84 1.87 1.90 1.92 1.86 1.85 1.85 1.90 1.85 1.85 1.84 1.82 1.87 1.86 1.88 1.87 1.85 1.84 1.87 1.74 1.63 1.65 1.78 1.84 1.82 1.96 2.01 1.96 1.86 1.93 1.92 1.95 1.93 1.99 2.02 2.03 2.09 2.11 2.11 2.09 2.09 2.09 2.07 2.05 2.02 1.98 1.95 1.94 1.91 1.89 1.87 1.86 1.86 1.85 1.83 1.79 1.77 1.76
1.90 1.93 1.96 2.02 2.02 1.99 2.01 2.01 2.00 1.99 2.02 2.03 2.02 2.01 2.03 2.06 2.04 2.02 1.99 1.97 1.96 1.96 1.97 2.02 2.04 2.03 1.95 1.89 1.86 1.88 1.88 1.82 1.81 1.86 1.91 1.89 1.89 1.88 1.88 1.87 1.87 1.88 1.86 1.87 1.86 1.83 1.81 1.77 1.75 1.74 1.89 1.82 1.87 1.91 1.97 1.96 1.86 1.87 1.91 1.96 2.00 2.02 2.00 1.98 2.05 2.11 2.13 2.12 2.09 2.07 2.04 2.01 1.96 1.93 1.93 1.93 1.90 1.87 1.87 1.85 1.84 1.83 1.84 1.82 1.80
1.93 1.95 2.00 2.03 2.06 2.04 2.03 2.04 2.03 2.02 2.03 2.05 2.03 2.02 2.04 2.07 2.07 2.05 2.03 2.02 2.01 2.02 2.03 2.04 2.04 2.01 1.97 1.92 1.89 1.90 1.89 1.90 1.87 1.88 1.90 1.93 1.89 1.88 1.90 1.88 1.88 1.86 1.84 1.81 1.84 1.80 1.78 1.72 1.72 1.78 1.87 1.92 1.93 1.84 2.03 2.09 2.01 1.95 1.89 1.90 1.89 2.00 2.02 2.00 1.97 2.09 2.12 2.09 2.08 2.06 2.02 1.96 1.93 1.92 1.91 1.89 1.88 1.84 1.82 1.83 1.83 1.83 1.82 1.83 1.83
1.96 1.97 1.99 2.01 2.08 2.09 2.07 2.07 2.08 2.09 2.07 2.06 2.07 2.07 2.06 2.07 2.07 2.07 2.06 2.05 2.02 2.02 2.03 2.03 1.99 1.96 1.96 1.95 1.93 1.95 1.97 2.00 1.95 1.90 1.98 1.90 1.95 1.89 1.91 1.89 1.88 1.85 1.81 1.80 1.85 1.84 1.77 1.74 1.77 1.76 1.86 1.86 1.87 1.94 1.93 1.99 1.94 1.93 2.01 1.94 1.83 1.88 1.95 2.01 1.98 1.92 2.00 1.99 1.93 1.95 1.95 1.93 1.91 1.91 1.91 1.89 1.86 1.83 1.80 1.79 1.80 1.81 1.80 1.80 1.80
2.01 2.01 2.03 2.06 2.06 2.07 2.09 2.09 2.10 2.11 2.08 2.08 2.11 2.11 2.07 2.05 2.04 2.02 2.04 2.03 2.01 1.99 1.98 1.93 1.91 1.93 1.95 1.96 1.95 1.97 2.05 2.08 2.03 2.02 2.07 2.01 1.93 1.88 1.89 1.96 1.91 1.89 1.85 1.83 1.74 1.78 1.81 1.76 1.74 1.84 1.79 1.77 1.78 1.76 1.76 1.78 1.78 1.79 1.98 1.99 1.91 1.91 1.92 1.88 1.94 1.99 1.93 1.85 1.86 1.85 1.85 1.86 1.81 1.82 1.84 1.82 1.86 1.85 1.82 1.79 1.78 1.79 1.79 1.79 1.79
2.02 2.02 2.03 2.08 2.03 2.03 2.05 2.04 2.08 2.10 2.09 2.09 2.16 2.10 2.12 2.11 2.05 2.02 2.03 2.01 2.00 1.98 1.92 1.84 1.86 1.92 1.97 1.99 2.00 2.03 2.06 2.07 2.07 2.04 2.03 2.01 1.99 1.96 1.94 1.96 1.96 1.91 1.86 1.80 1.78 1.79 1.80 1.74 1.76 1.81 1.80 1.76 1.77 1.79 1.79 1.88 1.95 1.94 1.91 1.89 1.79 1.80 1.80 1.73 1.79 1.87 1.93 1.84 1.77 1.73 1.77 1.86 1.77 1.75 1.78 1.76 1.82 1.83 1.81 1.81 1.78 1.77 1.78 1.79 1.81
2.02 2.00 1.99 1.99 2.02 2.04 2.06 2.06 2.06 2.11 2.16 2.13 2.12 2.12 2.09 2.08 2.07 2.04 1.99 1.99 2.01 1.98 1.90 1.84 1.81 1.87 1.95 2.01 2.01 2.03 2.02 1.99 2.01 2.01 2.00 2.02 2.00 2.00 2.01 2.04 2.04 1.99 1.89 1.82 1.81 1.84 1.79 1.78 1.85 1.87 1.84 1.79 1.80 1.85 1.84 1.85 1.89 1.85 1.76 1.73 1.69 1.68 1.61 1.55 1.52 1.78 1.97 1.86 1.74 1.66 1.66 1.80 1.77 1.64 1.69 1.71 1.74 1.78 1.81 1.79 1.79 1.78 1.77 1.77 1.76
1.95 1.94 1.91 1.90 1.94 2.00 2.02 2.04 2.08 2.05 2.05 2.14 2.12 2.12 2.09 2.08 2.08 2.07 2.05 2.01 1.99 1.95 1.90 1.86 1.87 1.89 1.94 2.00 2.04 2.02 2.06 2.08 2.01 2.01 2.03 2.03 2.02 2.01 2.02 2.02 2.03 2.05 2.05 1.98 1.89 1.83 1.85 1.82 1.83 1.81 1.81 1.79 1.77 1.80 1.79 1.77 1.76 1.73 1.71 1.72 1.74 1.70 1.58 1.55 1.54 1.49 1.77 1.96 1.76 1.60 1.56 1.73 1.74 1.65 1.61 1.67 1.73 1.74 1.74 1.73 1.74 1.73 1.72 1.73 1.72
1.89 1.86 1.87 1.90 1.91 1.95 1.99 2.02 2.02 2.06 2.09 2.17 2.15 2.12 2.10 2.09 2.09 2.07 2.01 2.00 1.98 1.93 1.91 1.89 1.90 1.92 1.94 2.02 2.10 2.08 2.06 2.06 2.05 2.06 2.06 2.05 2.03 2.02 2.00 2.01 2.00 1.99 2.01 2.05 2.05 1.97 1.92 1.78 1.68 1.70 1.76 1.77 1.74 1.77 1.82 1.78 1.85 1.69 1.69 1.79 1.81 1.73 1.62 1.54 1.53 1.63 1.82 1.89 1.71 1.56 1.46 1.59 1.66 1.58 1.54 1.64 1.70 1.67 1.65 1.65 1.64 1.65 1.66 1.65 1.66
1.86 1.85 1.87 1.87 1.92 1.97 2.05 2.06 2.08 2.11 2.12 2.16 2.14 2.15 2.10 2.06 2.06 2.05 2.00 2.00 1.97 1.93 1.91 1.92 1.95 1.97 2.01 2.03 2.06 2.03 2.08 2.10 2.04 2.00 2.00 2.05 2.03 1.96 1.92 1.93 1.93 1.90 1.90 1.92 1.90 1.86 1.81 1.69 1.65 1.71 1.78 1.82 1.72 1.79 1.83 1.89 1.77 1.71 1.69 1.74 1.76 1.71 1.64 1.54 1.67 1.66 1.70 1.74 1.55 1.45 1.32 1.43 1.56 1.52 1.47 1.53 1.59 1.54 1.53 1.53 1.53 1.54 1.54 1.54 1.54
1.89 1.89 1.88 1.87 1.91 2.02 2.15 2.20 2.21 2.14 2.13 2.18 2.15 2.14 2.08 2.04 2.05 2.06 2.02 2.02 1.97 1.94 1.94 1.96 2.00 2.04 2.07 2.06 2.07 2.02 2.04 2.06 2.12 2.08 2.07 1.97 1.90 1.91 1.99 1.92 1.78 1.73 1.73 1.68 1.64 1.59 1.54 1.54 1.58 1.55 1.67 1.80 1.77 1.78 1.80 1.91 1.92 1.90 1.79 1.75 1.72 1.64 1.59 1.61 1.52 1.51 1.48 1.55 1.46 1.29 1.06 1.26 1.45 1.36 1.35 1.37 1.39 1.38 1.41 1.42 1.43 1.44 1.45 1.46 1.47
1.99 1.97 1.95 1.96 1.95 2.04 2.22 2.28 2.21 2.14 2.24 2.18 2.13 2.12 2.06 2.02 2.04 2.05 2.03 2.00 1.95 1.95 1.93 1.96 2.03 2.08 2.11 2.11 2.08 2.10 2.05 2.05 2.09 2.10 2.09 2.05 1.96 1.90 1.75 1.66 1.63 1.68 1.67 1.68 1.64 1.62 1.62 1.55 1.55 1.53 1.57 1.58 1.58 1.54 1.57 1.61 1.69 1.73 1.70 1.69 1.61 1.52 1.40 1.25 1.15 1.29 1.30 1.50 1.51 1.31 1.12 1.13 1.32 1.19 1.19 1.27 1.27 1.24 1.32 1.37 1.40 1.41 1.42 1.43 1.44
1.97 1.97 1.96 1.96 1.99 1.99 2.01 2.09 2.11 2.10 2.13 2.07 2.10 2.10 2.07 2.06 2.05 2.06 2.06 2.02 1.97 1.92 1.94 2.01 2.04 2.08 2.10 2.11 2.13 2.08 2.11 2.10 2.09 2.04 1.92 1.80 1.64 1.57 1.54 1.56 1.56 1.52 1.50 1.63 1.60 1.52 1.46 1.41 1.38 1.35 1.33 1.33 1.32 1.35 1.37 1.40 1.43 1.52 1.48 1.37 1.30 1.33 1.24 1.16 1.21 1.26 1.30 1.44 1.48 1.38 1.19 1.06 1.20 1.19 1.13 1.20 1.22 1.22 1.27 1.32 1.37 1.37 1.38 1.40 1.40
1.96 2.02 2.07 2.06 2.08 2.06 2.02 2.02 2.05 2.03 2.05 2.09 2.11 2.11 2.10 2.09 2.10 2.06 2.04 1.99 1.96 1.96 2.01 2.03 2.02 2.05 2.10 2.09 2.08 2.07 2.04 1.96 1.85 1.75 1.64 1.50 1.36 1.29 1.26 1.33 1.38 1.42 1.43 1.51 1.53 1.50 1.50 1.42 1.36 1.32 1.28 1.25 1.23 1.21 1.23 1.25 1.28 1.34 1.26 1.10 1.23 1.30 1.21 1.20 1.13 1.18 1.24 1.28 1.29 1.37 1.17 1.11 1.24 1.24 1.14 1.19 1.21 1.24 1.26 1.29 1.31 1.33 1.33 1.32 1.32
2.05 2.06 2.07 2.08 2.08 2.10 2.11 2.09 2.10 2.07 2.07 2.09 2.11 2.12 2.12 2.13 2.12 2.11 2.06 1.98 1.94 1.97 2.00 1.98 2.01 1.99 2.00 2.01 1.97 1.87 1.78 1.69 1.63 1.52 1.39 1.27 1.17 1.11 1.10 1.14 1.21 1.28 1.39 1.45 1.39 1.34 1.33 1.29 1.23 1.19 1.17 1.23 1.23 1.24 1.25 1.24 1.22 1.21 1.19 1.17 1.24 1.21 1.17 1.18 1.15 1.13 1.00 1.05 1.32 1.47 1.16 1.21 1.21 1.24 1.17 1.06 0.99 1.16 1.25 1.23 1.23 1.24 1.23 1.22 1.22
Wind_Speed
7 6 6 6 5 5 5 4 4 3 2 1 0 1 3 4 5 5 5 6 7 8 10 10 10 11 11 11 10 9 8 7 6 4 2 1 2 4 5 7 10 11 11 12 13 13 14 14 15 15 15 15 15 15 14 13 13 13 12 12 12 12 12 12 12 13 12 12 12 12 12 12 12 12 12 11 11 11 11 11 11 10 10 10 10
7 6 6 6 6 6 5 5 4 3 2 1 0 1 3 3 4 5 5 6 7 8 10 10 10 11 11 11 11 10 9 9 8 5 3 2 2 3 4 6 8 10 11 11 12 13 13 14 15 15 15 16 16 16 15 15 14 13 13 13 13 12 12 12 12 12 12 12 12 13 12 12 12 12 12 12 12 12 12 11 11 11 11 11 11
7 7 6 6 6 6 6 5 4 3 2 1 0 1 2 3 4 5 5 6 7 8 9 10 10 11 11 11 11 10 10 9 8 7 5 3 3 2 3 5 7 9 10 10 11 12 13 13 14 15 15 15 16 17 16 16 15 14 14 14 13 13 13 13 13 13 13 13 13 13 13 13 13 13 13 13 13 12 12 12 12 12 12 12 13
7 7 7 7 7 6 6 5 4 3 2 1 0 1 2 3 4 4 5 6 7 8 9 9 10 10 11 11 11 10 10 9 9 7 6 5 4 3 3 4 6 8 9 9 10 11 12 13 13 14 15 15 15 16 17 16 16 16 15 15 14 14 14 14 14 13 13 13 13 13 13 13 13 13 14 14 14 14 13 13 13 13 13 13 13
8 8 8 7 7 7 6 5 4 3 2 2 1 1 1 3 3 4 4 5 7 7 8 9 10 10 10 10 10 10 10 9 9 8 6 5 4 4 3 4 5 7 7 8 9 10 11 12 13 14 14 14 15 16 17 17 17 17 16 16 16 15 15 15 15 15 14 14 14 14 14 14 14 14 14 14 15 15 15 15 14 14 14 14 14
9 9 8 8 7 7 6 5 4 3 3 2 1 1 1 2 3 4 4 5 6 7 8 8 9 10 10 10 10 9 9 9 9 8 7 6 5 4 4 4 4 5 6 7 8 9 10 11 12 13 13 14 15 15 16 17 17 17 17 17 16 16 16 16 16 16 16 15 15 15 15 15 15 15 15 15 15 15 15 15 15 15 15 15 15
10 9 9 8 8 7 6 5 4 4 3 2 1 1 2 2 3 4 4 5 6 7 7 7 8 9 10 10 9 9 9 9 8 8 8 7 6 5 4 4 4 4 5 5 7 8 9 10 11 12 13 13 14 15 15 16 17 17 17 17 17 17 17 17 17 17 17 17 17 17 17 17 17 16 16 16 16 16 16 16 16 16 16 16 16
10 10 9 9 8 7 6 6 5 4 3 2 2 1 2 2 3 4 5 5 6 6 7 7 8 8 9 9 8 8 8 8 8 8 7 7 6 6 5 4 4 4 4 4 5 6 8 9 10 11 12 13 13 14 15 15 16 16 16 17 17 17 17 17 17 18 18 18 18 18 18 18 18 18 18 18 18 18 18 18 18 18 17 17 17
11 10 10 9 9 8 7 6 5 4 3 2 2 1 2 2 3 3 4 5 5 6 7 7 7 8 8 8 8 8 8 8 8 7 7 7 7 6 5 4 4 3 3 4 4 5 6 8 9 10 11 12 13 13 14 14 15 15 16 16 17 17 17 17 18 18 18 18 18 19 19 19 19 19 19 19 19 19 19 19 19 19 19 18 18
12 11 10 9 9 8 7 6 5 5 3 2 2 2 2 2 3 3 4 5 5 6 7 7 7 7 8 8 7 7 7 7 7 7 7 7 7 7 6 5 4 4 4 3 4 4 5 6 8 9 10 11 12 12 13 14 14 15 15 16 16 17 17 17 17 18 18 18 18 19 19 19 19 19 19 19 19 20 20 20 20 20 20 19 19
12 11 10 10 9 9 8 7 6 5 4 3 3 2 2 3 3 3 4 5 5 6 6 6 6 7 7 7 7 6 7 7 7 6 6 7 6 6 6 6 5 4 4 4 3 3 4 5 6 7 8 9 11 11 12 13 13 14 14 15 16 16 16 17 17 17 17 18 18 18 18 19 19 19 19 19 20 20 20 20 20 20 20 19 19
12 12 11 10 10 9 9 8 7 6 5 4 3 3 3 3 3 4 4 5 5 5 6 6 6 6 6 6 6 6 6 6 6 6 6 6 6 6 6 6 5 5 4 4 3 3 3 4 5 6 6 8 9 10 11 12 12 13 13 14 15 15 15 16 16 16 17 17 18 18 18 18 19 19 19 20 20 20 20 20 20 19 19 19 19
13 12 11 11 10 10 9 9 8 7 6 5 4 4 4 4 4 4 5 5 5 5 5 5 5 5 5 5 5 5 5 6 6 6 6 6 6 5 6 6 5 5 4 4 3 3 3 3 4 4 5 6 7 8 9 10 11 12 13 13 14 14 15 15 16 16 16 16 17 17 17 18 18 19 19 20 20 20 20 20 20 20 19 20 20
13 12 12 11 11 10 10 9 9 8 7 6 6 5 5 5 5 5 5 5 5 5 5 5 5 5 5 5 4 4 4 4 5 6 6 6 6 5 5 5 5 5 4 4 3 3 3 3 3 3 4 5 5 6 8 9 10 11 12 12 13 14 14 15 15 15 16 16 16 17 17 17 18 18 19 19 20 20 20 20 20 20 20 20 20
14 13 13 12 12 11 10 9 9 9 8 7 7 6 6 6 6 6 6 6 5 5 4 4 4 5 5 4 4 4 3 3 4 5 5 5 5 5 5 4 5 4 4 4 3 3 3 3 3 3 3 4 4 5 6 7 8 10 11 11 12 13 13 14 14 15 15 16 16 16 17 17 18 18 18 19 19 19 20 20 20 20 20 20 20
14 14 13 13 12 11 11 10 9 9 9 8 8 8 7 7 7 6 6 6 6 5 4 4 4 4 4 4 4 3 3 3 4 4 4 4 4 4 4 4 4 4 4 3 3 3 3 3 3 3 3 3 4 4 5 5 6 8 9 10 11 12 12 13 13 14 14 15 15 16 16 17 17 17 18 18 19 19 19 20 20 20 20 20 20
15 15 14 14 13 12 11 10 10 9 9 9 9 9 8 8 8 7 7 7 7 6 5 4 4 4 4 4 4 3 3 4 4 3 3 3 3 3 3 3 3 3 3 3 3 3 3 3 3 3 2 2 3 3 4 4 4 5 6 8 9 10 11 11 12 13 13 14 14 15 15 16 16 17 17 18 18 18 19 19 19 19 20 20 20
15 15 15 14 13 13 12 11 11 10 10 9 9 9 9 9 9 8 8 7 7 7 6 5 4 3 3 3 3 3 4 4 4 3 2 2 2 2 2 2 2 2 3 3 3 2 2 3 3 3 2 2 2 2 3 3 3 4 4 5 7 8 9 9 10 11 12 12 13 14 14 15 15 16 16 17 17 18 18 19 19 19 19 19 19
15 15 15 15 14 13 13 12 12 11 10 10 10 10 10 10 9 9 8 8 7 7 7 5 5 4 4 3 3 3 4 4 4 3 2 2 2 2 2 2 1 1 2 2 2 2 2 2 2 2 2 2 2 2 2 3 3 3 3 4 5 6 7 8 8 9 10 11 11 12 13 14 14 15 16 16 17 17 18 18 18 18 18 18 19
15 15 15 15 14 14 13 13 12 12 11 11 10 10 10 10 10 9 9 8 8 8 7 6 5 5 4 4 4 4 4 3 4 4 3 3 2 1 2 1 0 0 1 1 1 1 2 2 2 2 2 2 2 2 2 2 2 3 3 3 4 4 5 6 7 7 8 9 10 10 11 12 13 14 14 15 16 16 16 17 17 17 18 18 18
15 15 15 15 15 14 14 13 13 12 11 11 11 10 10 10 10 10 9 9 8 8 7 7 6 6 5 4 5 4 4 4 4 4 4 3 2 2 2 1 0 1 1 0 1 1 1 1 1 1 1 1 1 2 2 2 2 3 3 3 4 4 4 5 5 6 7 8 8 9 10 11 12 13 14 14 15 15 15 16 16 16 17 17 17
15 15 15 15 15 15 14 13 13 12 12 11 11 11 10 10 10 10 10 9 9 8 8 7 7 6 6 5 5 5 5 4 4 4 4 3 3 3 2 2 1 1 1 1 1 1 0 0 0 0 1 1 1 1 2 2 2 2 3 3 4 4 4 5 5 6 6 7 8 9 9 10 11 12 13 14 14 14 14 14 15 15 15 16 16
15 15 15 15 15 15 14 13 13 12 12 12 12 11 10 10 10 10 10 10 9 9 9 9 8 7 7 7 6 6 6 5 4 4 4 4 4 4 3 2 2 1 1 1 1 1 1 1 1 1 1 1 1 2 2 2 3 3 3 3 4 4 4 5 5 6 6 7 8 8 9 10 11 12 12 13 13 13 13 13 13 14 14 14 15
15 15 15 15 15 15 15 14 13 13 13 13 12 11 11 10 10 10 10 10 10 9 9 9 9 9 8 8 8 7 7 6 6 5 5 5 5 4 4 3 3 3 2 2 2 2 2 2 2 2 2 2 2 2 2 2 3 3 3 4 4 4 5 5 5 6 6 7 8 8 9 10 11 11 11 12 12 12 12 12 12 13 13 13 13
16 16 16 16 15 15 15 14 14 13 13 13 13 12 11 11 11 11 10 11 11 10 10 10 10 10 9 9 8 8 8 7 7 6 6 6 5 5 5 4 4 4 3 3 3 3 3 3 3 3 3 3 2 2 2 3 3 3 4 4 4 5 5 5 6 6 6 7 8 8 9 9 10 10 10 10 11 11 12 12 12 12 12 12 13
16 16 16 16 16 15 15 15 15 14 14 14 14 13 12 12 12 11 11 11 11 11 11 11 11 10 10 10 9 9 9 8 8 7 7 7 6 6 6 5 5 5 5 4 4 4 4 4 4 3 3 3 3 3 3 3 3 4 4 4 5 5 5 6 6 6 7 7 8 8 8 8 8 8 9 9 10 10 11 11 11 12 12 12 12
16 16 16 16 16 16 15 16 15 15 14 14 15 14 13 13 12 12 12 12 12 12 11 11 11 11 11 11 11 10 10 9 9 8 8 7 7 7 6 6 6 6 6 5 5 5 5 5 4 4 4 3 4 4 4 4 4 4 5 5 5 6 6 6 6 7 7 7 8 8 8 8 8 8 8 8 9 9 9 10 10 11 11 12 12
17 16 16 16 16 16 16 16 16 16 15 15 15 15 14 13 13 13 13 13 13 12 12 12 12 11 11 11 11 11 10 10 10 10 9 8 8 8 8 7 7 7 6 6 6 6 6 6 5 5 5 4 4 4 4 5 5 5 5 6 6 6 6 7 7 7 7 8 8 8 8 8 8 8 8 8 8 9 9 10 10 11 11 11 12
17 17 17 17 16 16 16 16 16 16 16 16 16 15 15 14 14 14 14 13 13 13 13 12 12 11 11 11 11 11 10 11 11 10 10 9 9 9 9 9 8 8 8 7 7 7 6 6 6 6 6 5 5 5 5 6 5 5 6 6 6 7 7 7 8 8 8 8 8 8 8 8 8 8 8 8 9 9 9 10 10 11 11 12 12
18 18 18 17 17 17 17 16 16 16 16 16 16 16 15 15 15 15 14 14 13 13 13 13 12 12 11 11 11 11 11 11 11 11 10 10 10 10 10 10 10 10 9 9 8 8 8 7 7 6 6 7 6 6 7 7 6 6 7 7 7 7 7 8 9 9 9 9 9 9 9 9 9 9 9 9 9 10 10 10 11 11 12 12 12
19 19 19 18 18 17 17 17 17 16 16 16 16 16 16 16 16 15 15 14 14 13 13 12 12 12 12 12 11 11 11 11 11 11 11 10 10 11 11 11 11 11 11 10 10 9 9 9 8 7 8 8 8 8 8 8 8 8 8 8 8 8 8 9 9 10 10 10 10 10 10 10 10 10 10 10 10 11 11 11 11 12 12 12 12
19 19 19 19 18 18 17 17 17 17 17 17 16 16 16 16 16 15 15 14 13 13 13 13 13 12 12 12 12 12 11 11 11 12 11 11 11 11 11 12 12 12 12 12 12 11 11 11 10 10 9 9 9 10 9 9 9 10 10 10 9 9 10 10 10 10 11 11 11 11 11 11 11 11 11 11 11 11 12 12 12 12 12 13 13
20 20 20 19 19 19 18 18 18 17 17 17 17 17 17 16 16 15 15 14 14 14 14 14 13 13 13 13 13 13 12 12 12 12 12 12 12 12 12 12 13 13 13 13 13 13 12 12 12 12 11 11 11 11 11 11 11 11 11 11 11 11 11 11 11 11 11 11 11 11 11 11 11 11 11 12 12 12 12 13 13 13 13 13 14
21 20 20 20 20 20 20 19 19 18 18 18 18 17 17 17 16 16 16 15 15 15 15 15 15 14 14 14 14 14 13 13 13 13 13 12 12 12 13 13 13 13 14 14 14 14 14 13 13 13 13 12 12 12 12 12 12 12 12 12 12 12 12 12 12 12 12 12 12 12 12 12 12 12 12 13 13 13 13 13 13 13 14 14 15
22 22 22 21 21 21 21 20 20 20 19 19 19 18 18 18 17 17 16 16 16 16 16 16 16 15 15 15 15 15 14 14 14 14 13 13 14 14 14 14 14 14 14 15 15 15 15 15 14 14 14 14 14 13 13 13 12 13 13 13 13 13 13 13 13 13 13 13 13 13 13 13 13 13 14 14 14 14 14 14 14 14 14 15 15
24 23 23 23 22 22 22 22 21 21 21 20 20 19 19 19 18 18 18 17 17 17 17 17 16 16 16 16 16 15 15 14 14 14 14 14 14 14 15 14 15 15 15 15 15 16 16 16 15 15 15 15 14 14 13 13 13 13 13 13 13 14 14 14 14 14 14 14 14 14 14 15 15 15 15 15 15 15 15 15 15 15 15 15 15
25 25 25 24 24 23 23 23 22 22 22 21 21 20 20 19 19 19 19 18 18 18 18 18 17 17 17 17 17 16 16 15 15 15 15 15 15 15 15 15 15 15 15 15 16 16 16 16 16 16 16 16 15 15 14 14 14 14 14 14 15 15 15 15 15 15 15 15 15 16 16 16 16 16 17 16 16 16 16 16 16 16 16 16 16
26 26 26 25 25 25 24 24 23 23 22 22 22 21 21 20 20 20 19 19 19 19 18 18 18 18 18 18 18 18 17 17 16 16 15 15 15 15 15 15 15 15 15 16 16 16 17 17 17 17 17 17 16 15 15 15 15 15 15 15 16 16 16 16 16 16 15 15 16 16 16 16 17 17 17 17 17 17 17 17 17 16 16 16 16
27 27 27 26 26 26 26 25 24 24 23 23 23 22 22 21 20 20 20 20 20 19 19 19 19 19 19 19 19 19 19 18 18 17 16 16 15 15 15 15 15 15 16 16 16 17 17 17 17 18 18 17 16 15 15 15 16 16 16 16 16 16 16 16 16 16 16 16 16 16 16 16 17 17 17 17 17 17 17 17 17 17 17 17 16
28 28 28 28 27 27 27 26 26 25 24 24 23 22 22 22 21 21 21 20 20 20 20 20 20 20 20 20 19 19 19 19 18 18 17 16 15 15 15 15 15 15 15 16 16 17 17 17 17 17 17 16 16 16 17 17 17 17 17 16 16 16 15 15 16 16 16 16 16 16 16 17 17 16 17 17 17 18 18 18 17 17 17 17 17
29 29 30 29 29 28 28 28 27 26 26 25 24 23 22 22 22 21 21 21 21 21 20 20 20 20 20 20 20 20 19 18 18 18 17 16 16 15 15 15 15 15 16 16 16 16 17 17 17 17 16 16 16 16 17 17 17 17 17 16 16 16 15 15 16 16 16 16 16 16 16 16 16 16 16 17 17 17 18 18 18 18 18 18 18
30 30 30 30 30 30 30 30 29 28 27 26 25 25 24 23 22 22 21 21 20 21 20 20 20 20 20 20 20 20 19 19 18 18 18 17 17 17 16 15 15 15 16 16 16 16 17 17 17 17 16 16 16 16 16 16 16 16 16 16 16 15 15 15 15 15 16 16 16 16 16 16 16 16 16 16 17 17 17 17 18 18 18 18 19
31 30 31 31 31 31 31 31 31 30 29 28 26 25 24 24 23 22 21 20 20 20 20 20 20 20 20 20 20 19 19 19 18 18 18 18 17 17 17 17 16 16 16 16 15 16 16 16 16 15 15 15 15 14 15 15 15 15 15 15 15 14 14 15 15 15 15 15 16 16 16 16 16 16 16 16 17 17 17 17 17 18 18 19 19
30 30 30 31 32 32 32 32 32 31 30 29 27 25 24 24 23 22 21 20 19 19 19 20 20 20 20 20 19 19 18 18 18 18 18 18 17 17 17 17 17 17 16 16 16 15 15 15 15 15 15 14 14 14 14 14 14 14 15 15 14 14 14 15 15 15 15 15 15 16 16 16 16 16 16 16 16 16 16 16 17 17 18 18 19
29 29 29 29 30 31 31 32 32 31 30 28 27 26 25 24 24 23 22 20 20 19 19 19 19 19 19 19 18 18 17 17 17 17 17 17 16 17 17 17 17 17 16 16 16 16 15 15 15 15 15 14 14 14 14 13 14 14 14 15 15 14 15 15 15 15 15 16 16 16 16 16 16 16 16 16 16 16 16 16 17 17 17 18 19
26 28 28 28 28 29 30 30 30 30 29 28 27 26 25 24 24 23 22 21 20 19 19 19 19 19 19 19 18 17 17 17 17 17 17 16 15 15 16 16 16 16 16 16 16 16 16 15 15 15 15 14 14 14 14 14 14 14 14 15 15 15 15 16 16 16 16 17 17 17 17 17 16 17 16 16 16 17 17 17 17 17 18 18 19
23 25 26 25 25 26 27 28 28 28 28 27 27 26 25 25 24 23 23 22 21 20 19 19 19 19 18 18 18 18 17 17 16 16 16 15 15 15 15 15 16 16 16 15 15 15 15 14 15 14 14 14 14 14 14 14 15 15 15 16 16 16 16 17 17 17 17 17 17 17 18 17 17 17 17 17 17 17 17 17 17 17 18 18 19
20 21 22 22 22 21 22 24 25 25 26 26 26 25 25 25 24 23 23 22 21 20 19 19 19 18 18 18 18 17 17 16 16 16 15 15 15 15 16 16 16 15 15 14 14 13 14 14 14 14 14 14 14 14 15 15 16 16 16 17 17 17 17 18 18 17 17 17 17 17 17 17 17 17 17 17 17 17 17 17 17 17 18 18 18
18 18 19 20 20 20 20 22 23 23 23 23 24 24 24 24 24 23 23 22 20 20 19 18 18 18 17 17 17 17 16 16 15 15 15 15 16 16 17 16 16 15 14 14 13 13 14 14 15 15 16 16 16 16 17 17 18 17 17 18 18 17 17 17 17 17 16 16 16 17 17 17 17 16 16 16 16 16 16 16 16 16 16 17 17
16 16 16 17 17 18 19 20 21 22 22 22 22 22 22 22 23 22 21 21 20 19 18 17 17 17 17 17 17 16 16 15 15 14 15 16 16 17 17 17 16 15 14 14 14 14 14 14 15 16 17 17 18 18 18 19 19 19 19 19 19 18 18 18 17 17 17 17 16 17 17 16 16 16 15 16 16 16 16 16 15 15 16 16 16
14 13 14 14 15 16 16 17 18 18 19 19 20 20 20 21 21 20 20 19 19 18 17 17 16 16 16 16 16 16 16 15 15 15 15 16 16 16 15 16 16 15 14 14 14 14 14 15 16 17 17 17 18 18 18 18 19 19 19 19 19 19 19 18 18 18 17 17 16 16 16 15 15 15 15 15 15 15 15 15 15 15 16 16 16
Wind_Direction
211 216 217 213 208 202 195 190 188 191 188 191 305 6 7 4 5 6 8 7 6 8 10 11 12 12 13 13 14 13 16 23 28 33 49 101 165 169 179 190 194 194 193 196 198 198 198 198 199 201 202 202 201 201 199 197 197 196 196 195 195 195 195 195 197 200 202 204 206 208 210 212 214 215 216 218 221 224 226 230 233 236 241 245 249
212 213 211 206 201 196 189 186 187 186 184 190 320 7 5 3 4 4 5 6 7 8 10 9 8 9 12 14 13 13 18 25 29 36 49 63 106 143 166 180 188 191 190 194 197 197 198 199 201 203 205 206 205 205 204 203 202 201 201 201 200 201 201 200 200 203 206 209 210 212 214 216 218 219 221 223 226 229 231 235 238 242 245 249 254
209 207 204 200 195 190 186 185 185 183 181 185 293 359 358 357 359 359 2 6 7 8 9 9 7 9 13 15 15 16 23 27 30 37 48 60 78 110 152 170 179 185 188 192 195 196 198 199 202 204 206 207 207 207 207 207 207 207 207 206 206 206 207 207 206 208 210 212 214 216 217 219 221 224 226 228 231 233 236 239 242 245 249 252 256
204 200 197 195 191 187 185 185 185 180 179 184 218 335 347 351 354 356 0 5 6 6 8 9 9 11 14 17 17 20 27 30 33 36 44 58 74 95 128 157 171 178 185 191 193 195 198 201 204 204 206 207 208 209 209 210 211 211 212 211 212 212 213 214 214 215 216 216 218 220 221 223 225 228 230 233 235 237 240 242 245 248 251 254 257
199 196 195 193 190 187 186 187 185 180 179 188 221 294 338 349 350 352 357 1 4 6 6 9 11 12 16 19 20 24 30 32 34 37 43 56 71 89 113 141 161 172 180 187 191 195 198 201 204 206 208 209 210 210 211 212 213 214 215 216 217 217 218 219 219 221 222 223 224 225 226 228 230 232 234 237 239 241 243 245 247 250 252 255 257
196 193 194 193 190 189 189 188 185 181 182 195 231 288 329 343 347 351 355 359 4 5 6 9 10 12 17 21 23 26 32 35 36 38 44 54 68 83 102 124 148 163 172 180 187 193 197 200 203 206 209 210 212 212 213 214 215 216 217 219 220 222 223 223 224 225 226 228 229 231 232 233 234 235 237 239 241 243 245 247 249 251 253 256 258
195 193 195 194 190 190 191 190 187 186 189 206 234 288 319 334 347 352 355 359 2 2 5 9 10 13 17 21 25 28 33 37 39 41 46 54 65 77 92 109 130 150 163 172 180 190 196 200 203 205 208 211 213 214 215 216 217 219 220 221 223 225 226 227 228 229 230 232 233 234 236 237 238 239 240 242 244 246 247 249 251 253 255 257 259
195 196 196 194 192 193 194 193 194 196 200 213 236 282 308 323 344 352 355 358 358 358 4 8 9 14 17 20 24 29 34 38 40 43 47 54 64 73 84 97 116 138 155 165 175 186 194 200 204 206 208 211 213 215 216 217 219 221 222 224 225 227 228 230 231 232 234 235 237 238 239 240 241 242 243 245 247 248 250 251 253 254 256 258 260
197 198 198 196 195 197 197 197 202 207 209 216 236 266 290 314 338 351 354 355 354 356 2 6 8 12 16 19 23 28 34 38 41 45 48 54 61 67 76 89 103 124 142 156 168 181 191 198 203 207 210 212 213 215 216 218 220 222 224 225 227 229 230 232 233 235 237 238 239 240 241 242 243 244 245 247 248 250 252 253 254 256 257 259 261
199 200 200 200 200 200 201 203 207 213 217 221 234 250 269 300 328 343 348 350 351 353 360 4 5 8 11 16 23 29 33 38 42 46 49 53 59 64 71 83 94 110 124 140 158 171 183 193 199 204 208 212 214 215 217 220 222 224 225 227 229 230 232 234 235 237 239 240 241 242 243 244 244 246 247 248 250 251 253 255 256 257 258 260 261
201 201 202 202 203 204 205 209 213 218 224 227 234 244 259 287 314 331 338 344 347 348 355 0 2 5 8 14 25 31 34 39 43 47 49 51 59 66 71 80 90 101 111 124 142 157 172 184 194 199 205 211 214 217 219 221 223 225 227 228 230 232 233 235 237 238 240 241 242 243 243 244 245 246 247 249 250 252 253 255 256 257 258 260 261
202 203 204 205 207 208 210 213 216 222 228 233 240 246 260 282 301 317 326 334 342 345 351 355 358 2 8 14 23 33 38 41 42 46 50 51 58 64 69 76 82 91 101 114 127 142 162 176 188 197 203 208 212 216 218 220 223 225 227 229 230 232 234 235 237 239 240 242 242 243 244 245 246 247 248 249 250 251 253 254 255 257 258 259 260
205 206 207 210 212 213 215 217 220 224 229 237 247 252 262 277 291 304 313 326 337 341 346 349 352 1 9 11 18 28 36 40 41 45 51 54 57 62 67 71 73 80 92 106 118 130 149 165 180 193 199 203 207 212 216 219 222 225 227 228 230 232 234 236 237 239 240 241 243 244 245 246 247 249 250 251 251 252 253 254 255 256 258 258 259
209 210 212 214 216 218 220 222 224 226 231 240 250 256 263 272 282 294 303 315 327 332 339 341 345 357 1 2 12 22 25 33 41 43 49 55 57 61 67 69 70 74 83 95 106 115 131 148 166 182 191 197 203 207 213 219 223 225 226 228 230 233 235 236 238 240 241 243 243 245 246 247 249 250 251 252 252 253 253 254 255 256 257 258 259
212 213 215 217 219 222 224 226 227 229 234 242 250 257 262 268 275 285 296 305 314 323 332 331 335 346 349 351 2 11 14 23 38 46 51 54 54 57 64 68 70 73 78 89 99 106 114 130 147 164 179 190 198 203 210 218 223 225 226 229 231 233 235 237 239 241 243 244 245 246 247 249 250 251 252 253 253 254 254 255 256 256 258 259 260
215 215 217 219 222 224 227 228 229 231 236 242 250 256 261 266 271 278 287 294 302 312 319 317 322 333 336 341 345 355 11 16 29 42 47 52 51 51 57 62 68 75 79 86 97 103 106 115 128 144 162 178 190 199 206 213 219 223 227 229 231 233 235 238 240 241 243 245 246 248 249 250 252 253 253 254 254 255 255 256 257 257 258 259 260
217 218 219 221 223 226 228 229 231 234 238 243 250 256 261 264 268 273 277 283 291 299 304 303 306 316 320 327 332 342 359 1 8 24 36 46 47 43 46 52 63 75 79 83 94 100 105 113 119 128 143 162 179 193 204 209 214 220 225 229 232 235 236 238 241 243 244 246 248 250 251 253 253 254 255 255 256 257 257 258 258 259 260 260 261
218 219 221 223 225 227 229 231 234 237 241 246 251 256 260 262 265 267 269 274 281 286 291 294 295 297 298 302 312 324 335 341 348 359 22 33 30 30 34 41 56 71 78 84 91 95 104 116 122 129 139 151 165 183 196 202 207 212 218 224 228 233 236 238 241 244 246 248 250 252 253 254 255 255 256 257 257 258 258 258 259 259 260 261 262
219 221 222 224 226 227 230 232 235 239 243 247 251 254 258 260 261 261 262 267 272 276 280 283 283 284 283 282 283 294 308 319 326 332 346 357 1 13 16 23 50 69 81 90 95 95 101 116 126 134 142 151 162 177 189 197 203 207 212 216 220 226 232 236 240 244 247 249 252 254 255 256 257 257 258 258 259 259 259 259 259 259 260 261 262
219 221 223 224 226 228 230 232 235 239 243 246 249 252 254 256 257 257 258 261 263 266 270 272 275 277 279 279 275 278 286 294 305 310 314 319 331 358 359 358 19 90 97 96 99 97 101 114 128 141 150 157 169 182 195 203 206 209 214 216 217 222 229 235 240 245 249 253 256 258 260 261 260 260 260 260 260 260 260 260 260 260 261 262 263
220 221 223 224 226 228 230 232 235 238 240 244 246 248 250 252 252 253 254 256 257 258 261 262 265 270 272 273 273 278 280 279 285 291 295 300 305 325 340 331 264 175 151 121 114 105 97 109 122 144 166 181 183 190 201 206 209 216 219 218 220 224 230 237 244 250 254 258 261 263 265 266 265 264 263 262 262 262 262 261 261 261 262 263 264
222 222 223 224 225 227 230 232 235 237 239 241 243 245 247 248 249 249 249 251 253 253 255 256 258 264 268 268 268 271 272 270 271 277 279 281 284 293 299 293 274 198 198 218 213 203 222 210 138 149 190 220 219 214 215 213 214 223 226 222 224 230 235 243 250 254 259 262 264 267 268 269 270 268 266 265 264 263 262 262 262 262 263 264 265
223 223 223 224 226 228 230 233 235 237 238 240 241 244 246 247 247 246 246 247 249 251 253 254 255 257 261 264 263 264 266 268 269 271 271 271 273 275 273 275 277 255 233 234 241 246 246 244 244 240 235 234 233 233 233 234 231 231 232 230 233 238 242 249 256 260 264 268 271 273 274 274 274 272 269 266 264 262 261 261 262 263 264 265 266
224 225 225 226 228 229 231 233 235 236 238 239 240 243 245 247 247 245 245 245 247 250 251 252 254 256 256 258 260 263 266 268 267 263 262 266 269 269 267 266 264 257 251 250 252 252 249 247 246 242 241 243 247 248 244 247 246 241 244 244 244 249 251 256 261 265 269 274 278 281 281 280 278 275 271 267 263 261 260 260 261 262 265 266 266
226 227 228 228 229 231 232 233 235 237 239 240 241 244 245 247 247 246 247 247 247 250 252 253 255 256 257 257 259 261 264 267 267 262 258 259 261 262 263 261 257 255 255 255 253 252 250 250 249 243 242 245 252 257 255 256 254 247 250 253 251 255 260 262 266 269 274 279 285 288 288 285 282 278 274 270 266 263 262 261 261 264 266 267 268
228 229 230 231 232 233 234 235 236 238 240 241 243 244 245 246 246 246 247 248 249 251 253 255 256 255 255 258 260 260 260 262 263 259 256 254 255 257 258 257 257 255 254 253 253 252 251 251 249 245 245 247 252 259 261 263 260 252 256 262 258 257 262 265 269 275 280 284 288 291 291 288 285 281 276 272 270 268 266 264 264 267 268 269 270
229 230 230 232 234 236 237 237 238 240 241 243 245 245 244 245 247 247 248 249 251 251 252 254 256 256 255 258 262 260 257 257 256 255 253 252 253 255 256 256 257 256 254 253 253 253 253 251 248 247 249 250 252 258 263 267 264 257 261 268 266 261 262 266 270 276 282 286 288 291 291 289 286 283 279 274 272 270 268 267 268 270 270 271 273
233 232 233 234 236 238 239 240 241 242 242 244 246 246 244 245 247 248 249 251 251 251 252 253 255 256 256 258 260 260 256 253 253 254 254 252 252 254 253 254 255 255 255 254 254 254 252 250 248 250 252 253 255 258 262 267 266 262 266 269 268 266 264 267 271 275 282 286 287 290 291 290 287 284 281 278 275 273 270 269 270 271 272 274 275
236 236 237 237 239 240 241 242 243 243 243 244 246 246 246 247 247 248 251 252 250 249 251 253 254 255 256 256 258 258 256 252 251 254 254 252 253 253 252 252 252 254 254 255 255 255 253 251 251 253 253 252 256 259 261 265 263 265 271 271 270 269 265 267 272 275 280 284 286 288 290 290 288 285 282 279 277 275 274 273 273 273 274 274 276
238 239 239 239 240 241 243 244 244 244 244 244 246 247 247 248 249 250 252 251 249 248 249 250 252 253 254 255 255 256 256 254 252 253 252 251 252 253 252 251 250 252 255 257 257 256 256 256 255 255 254 253 257 261 264 265 261 263 271 272 273 272 268 269 272 275 278 282 285 287 288 289 289 286 283 280 278 277 276 276 275 275 276 276 277
239 240 240 240 240 242 243 244 245 244 244 245 246 247 248 250 251 251 250 248 247 247 247 248 250 252 253 253 252 253 254 254 252 252 251 250 251 252 252 252 250 251 253 256 257 257 257 259 258 256 256 257 260 262 264 266 264 264 268 271 273 272 272 273 274 275 278 281 284 286 287 288 289 287 284 282 280 279 278 278 277 277 277 278 279
239 240 241 240 240 241 243 243 243 243 243 244 246 248 250 251 252 252 252 249 248 248 248 248 249 250 251 252 251 251 252 253 252 252 252 252 251 251 252 252 251 251 252 254 256 257 256 258 259 260 260 260 262 262 264 265 264 264 267 269 270 272 275 277 276 275 277 279 281 284 285 287 287 287 286 284 282 281 280 280 279 279 278 279 280
239 240 241 240 240 241 242 243 243 243 243 244 245 247 250 251 251 251 251 251 249 249 249 249 249 249 251 252 251 250 251 252 252 252 252 252 252 251 251 251 251 252 251 252 255 258 257 257 258 260 260 260 262 263 264 265 265 266 266 266 267 270 274 277 277 276 276 277 279 281 283 285 286 287 287 286 285 283 282 281 280 280 280 281 282
239 239 240 240 240 241 242 243 243 244 245 245 246 247 248 250 250 250 250 250 249 249 249 249 248 249 251 251 251 250 251 251 251 252 253 253 254 254 253 253 253 252 251 252 254 258 258 257 258 259 259 258 261 264 264 265 266 268 268 266 267 270 273 276 277 277 276 277 279 279 281 284 286 287 287 286 285 284 283 282 280 280 280 282 283
240 240 241 241 241 242 243 243 244 245 245 246 246 247 247 248 249 249 249 249 249 249 249 249 248 248 251 251 250 249 250 249 250 252 254 254 255 256 256 255 255 254 252 252 253 256 258 259 258 258 258 258 260 261 263 265 267 269 269 268 267 269 272 275 278 278 276 276 278 278 280 282 284 286 286 286 284 283 282 281 280 280 281 281 282
240 241 242 241 242 243 243 244 244 245 245 245 246 246 247 248 248 249 249 250 249 249 249 250 249 249 249 250 249 248 247 248 250 253 254 254 254 255 256 256 255 255 254 253 253 254 257 259 259 259 259 260 260 261 262 264 266 268 269 269 269 271 273 275 278 279 277 276 278 278 279 281 283 284 284 284 283 281 279 279 279 280 280 280 281
241 242 242 242 242 243 244 245 245 245 245 245 245 246 246 246 247 248 249 250 251 250 250 250 251 250 250 249 249 248 248 249 251 252 253 253 254 254 255 256 256 255 255 255 254 254 256 258 259 260 260 261 261 262 263 265 266 267 269 270 271 272 274 275 276 278 278 278 279 279 279 280 281 282 282 281 280 279 278 278 278 278 278 279 280
242 243 243 243 242 243 244 245 245 245 244 245 245 245 244 245 246 247 249 251 251 251 250 250 251 252 252 251 250 249 248 249 250 251 252 252 253 254 255 255 256 257 257 257 257 257 257 258 260 260 260 261 261 262 264 266 266 267 268 270 271 272 274 275 276 277 278 279 280 281 280 281 281 281 281 279 278 278 278 277 277 276 277 278 279
243 243 244 244 243 243 243 244 245 244 243 244 244 244 243 243 245 247 249 250 251 251 251 251 251 251 251 251 250 249 249 249 249 251 252 251 251 253 254 255 256 257 258 259 259 259 258 258 260 261 261 263 265 266 268 269 269 269 269 270 271 272 274 275 276 277 278 279 281 282 282 283 283 282 280 278 276 277 277 276 276 275 275 277 279
244 245 245 244 244 244 243 244 244 243 242 243 243 243 242 243 245 246 248 250 250 251 252 252 252 251 250 250 250 249 248 247 248 250 251 251 251 253 254 255 256 258 259 261 262 263 262 261 261 261 263 266 268 269 270 270 270 271 269 269 271 273 274 276 277 278 280 281 282 283 283 283 283 282 280 278 276 276 276 276 275 274 274 276 278
245 245 245 244 244 244 244 244 244 243 242 241 241 242 243 243 244 246 248 249 250 251 252 253 252 250 250 250 249 248 247 247 247 248 250 251 252 253 255 256 257 258 260 261 263 265 267 266 265 265 265 267 269 270 270 269 270 271 270 270 272 274 276 278 279 279 281 282 284 285 285 284 284 282 281 280 279 277 276 275 274 273 274 275 277
244 245 245 244 245 245 245 244 244 243 242 241 241 242 243 243 244 245 247 248 249 250 251 251 250 249 250 250 249 248 247 247 247 248 250 251 252 254 256 257 258 259 261 262 263 264 267 268 269 269 268 269 270 271 271 271 270 271 272 273 274 276 277 278 279 280 282 283 284 284 284 284 284 284 283 282 281 279 278 276 275 274 274 274 276
244 245 245 245 246 246 245 245 245 245 244 243 241 241 241 242 243 244 246 248 249 250 250 249 249 249 249 248 247 246 246 247 248 249 250 251 252 254 256 257 258 259 261 263 264 265 266 268 270 270 270 273 274 273 273 272 271 271 272 273 273 274 276 278 281 283 283 284 285 285 284 284 284 284 284 283 282 280 280 280 278 277 277 276 277
244 246 247 246 246 246 245 245 245 244 244 242 240 239 240 241 242 243 245 247 248 249 248 248 248 248 248 247 245 243 244 245 246 248 249 250 252 254 255 256 257 258 260 261 263 264 266 267 269 270 271 274 275 274 274 273 272 271 273 274 274 276 278 281 284 286 284 284 285 286 286 284 284 284 285 284 283 281 282 283 282 281 280 280 280
244 246 247 247 246 245 244 244 243 241 241 240 238 238 239 240 242 243 244 246 247 248 248 248 248 248 247 245 242 240 241 243 245 247 249 250 251 253 254 256 257 258 258 258 259 262 264 266 267 269 271 273 274 274 273 273 273 274 275 276 277 279 281 283 285 286 285 284 286 286 286 285 284 284 285 284 283 282 283 285 285 283 283 282 282
245 246 246 247 247 245 243 242 240 238 238 239 238 237 238 239 240 241 242 244 246 248 248 248 248 247 246 244 242 242 242 244 246 246 247 249 251 252 254 255 257 259 258 257 257 260 262 264 266 268 271 273 274 275 274 274 274 276 277 278 280 283 284 285 286 286 285 284 285 286 286 284 282 283 283 284 283 282 283 285 285 284 283 283 282
247 245 244 244 246 244 241 238 236 236 236 236 236 236 237 238 239 239 241 243 244 246 247 247 246 246 244 244 244 243 243 245 245 245 246 248 250 251 253 255 258 259 259 258 259 260 263 264 265 268 271 272 274 275 275 275 275 277 279 281 283 285 285 286 286 286 284 283 283 284 285 284 283 282 283 283 283 283 283 285 285 285 285 284 284
248 244 241 240 241 240 236 232 233 234 233 233 234 236 236 236 237 238 239 241 242 244 245 245 244 243 243 243 244 244 245 246 246 247 250 251 251 252 255 257 258 258 258 259 261 262 264 267 268 270 272 274 275 275 276 276 277 279 281 282 282 283 283 284 285 285 284 282 280 282 284 284 283 283 283 283 283 284 284 285 285 286 286 287 287
245 242 238 237 237 236 233 231 232 233 233 234 235 235 235 234 235 236 237 238 239 240 241 241 241 241 240 241 244 246 248 249 249 249 252 253 254 256 258 259 259 258 258 259 261 262 264 267 269 271 273 274 275 275 275 276 277 278 280 280 280 281 282 283 284 284 284 282 280 282 284 284 283 283 284 284 284 284 284 285 286 286 287 287 288
243 239 235 233 233 233 232 232 233 234 235 235 233 232 231 231 231 233 234 234 234 235 236 236 237 238 239 241 244 246 248 250 250 250 253 255 256 257 258 258 259 258 258 260 262 264 266 268 270 273 273 273 274 274 274 275 275 276 277 278 280 281 281 282 283 284 284 283 281 281 282 283 283 283 283 284 284 285 285 286 287 287 286 287 288
242 238 233 228 227 228 228 229 230 231 232 230 228 226 226 227 228 230 229 229 229 229 231 233 234 237 240 242 244 245 246 248 250 252 256 257 255 255 256 257 258 259 260 262 265 268 271 273 275 275 275 274 275 275 275 275 275 275 276 277 278 279 280 281 282 283 284 283 281 280 280 281 282 282 283 284 285 286 287 287 287 287 287 288 290